CAPE
0 0 0 0 0 0 0 0 0 0 0 0 0 0 0 0 0 0 0 3 14 11 9 4 5 5 5 8 7 6 5 6 6 7 6 6 6 7 9 8 8 10 11
0 0 0 0 0 0 0 0 0 0 0 0 0 0 0 0 0 0 0 1 8 4 3 5 3 5 6 7 7 5 5 5 5 5 3 4 5 5 7 8 8 10 11
0 0 0 0 0 0 0 0 0 0 0 0 0 0 0 0 0 0 0 0 0 1 7 1 2 2 4 5 3 3 3 3 2 3 5 5 5 5 7 6 6 6 6
0 0 0 0 0 0 0 0 0 0 0 0 0 0 0 0 0 0 0 0 0 0 0 2 0 0 1 3 2 2 2 2 2 3 4 4 4 4 4 4 4 6 6
0 0 0 0 0 0 0 0 0 0 0 0 0 0 0 0 0 0 0 0 0 0 0 0 0 0 0 0 0 0 2 2 1 1 2 2 2 2 2 2 4 5 5
0 0 0 0 0 0 0 0 0 0 1 0 0 0 0 0 0 0 0 0 0 0 0 0 0 0 0 0 0 0 0 0 0 0 0 0 0 0 2 2 2 3 4
0 0 0 0 0 0 0 0 0 0 0 0 0 0 0 0 0 0 0 0 0 0 0 0 0 0 0 0 0 0 0 0 0 0 0 0 0 0 0 1 2 1 1
0 0 0 0 0 0 0 0 0 0 0 0 0 0 0 0 0 0 0 0 0 0 0 0 0 0 0 0 0 0 0 0 0 0 0 0 0 0 0 0 0 0 0
0 0 0 0 0 0 0 0 0 0 0 0 0 0 0 0 0 0 0 0 0 0 0 0 0 0 0 0 0 0 0 0 0 0 0 0 0 0 0 0 0 0 0
0 0 0 0 0 0 0 0 0 0 0 0 0 0 0 0 0 0 0 0 0 0 0 0 0 0 0 0 0 0 0 0 0 0 0 0 0 0 0 0 0 0 0
0 0 0 0 0 0 0 0 0 0 0 0 0 0 0 0 0 0 0 0 0 0 0 0 0 0 0 0 0 0 0 0 0 0 0 0 0 0 0 0 0 0 0
0 0 0 0 0 0 0 0 0 0 0 0 0 0 0 0 0 0 0 0 0 0 0 0 0 0 0 0 0 0 0 0 0 0 0 0 0 0 0 0 0 0 0
0 0 0 0 0 0 0 0 0 0 0 0 0 0 0 0 0 0 0 0 0 0 0 0 0 0 0 0 0 0 0 0 0 0 0 0 0 0 0 0 0 0 0
5 0 0 0 0 0 0 0 0 0 0 0 0 0 0 0 0 0 0 0 0 0 0 0 0 0 0 0 0 0 0 0 0 0 0 0 0 0 0 0 0 0 0
0 0 0 0 0 0 0 0 0 0 0 0 0 0 0 0 0 0 0 0 0 0 0 0 0 0 0 0 0 0 0 0 0 0 0 0 0 0 0 0 0 0 0
0 0 0 0 0 0 0 0 0 0 0 0 0 0 0 0 0 0 0 0 0 0 0 0 0 0 0 0 0 0 0 0 0 0 0 0 0 0 0 0 0 0 0
0 0 0 0 0 0 0 0 0 0 0 0 0 0 0 0 0 0 0 0 0 0 0 0 0 0 0 0 0 0 0 0 0 0 0 0 0 0 0 0 0 0 0
0 3 0 0 0 0 0 0 0 0 0 0 0 0 0 0 0 0 0 0 0 0 0 0 0 0 0 0 0 0 0 0 0 0 0 0 0 0 0 0 0 0 0
0 0 0 0 0 0 0 0 0 0 0 0 0 0 0 0 0 0 0 0 0 0 0 0 0 0 0 0 0 0 0 0 0 0 0 0 0 0 0 0 0 0 0
0 0 0 0 0 0 0 0 0 0 0 0 0 0 0 0 0 0 0 0 0 0 0 0 0 0 0 0 0 0 0 0 0 0 0 0 0 0 0 0 0 0 0
0 0 0 0 0 0 0 0 0 1 0 1 0 0 0 0 0 0 0 0 0 0 0 0 0 0 0 0 0 0 0 0 0 0 0 0 0 0 0 0 0 0 0
0 0 0 0 0 0 0 0 0 0 0 0 0 0 0 0 0 0 0 0 0 0 0 0 0 0 0 0 0 0 0 0 0 0 0 0 0 0 0 0 0 0 0
0 0 0 0 0 0 1 1 0 0 0 0 0 0 0 0 0 0 0 0 0 0 0 0 0 0 0 0 0 0 0 0 0 0 0 0 0 0 0 0 0 0 0
0 0 0 0 0 0 1 1 1 0 0 0 0 0 0 0 0 0 0 0 0 0 0 0 0 0 0 0 0 0 0 0 0 0 0 0 0 0 0 0 0 0 0
0 0 0 0 0 0 1 1 0 0 0 0 0 0 0 0 0 0 0 0 0 0 0 0 0 0 0 0 0 0 0 0 0 0 0 0 0 0 0 0 0 0 0
0 0 0 0 0 0 1 1 0 0 0 0 0 0 0 0 0 0 0 0 0 0 0 0 0 0 0 0 0 0 0 0 0 0 0 0 0 0 0 0 0 0 0
CIN
0 0 0 0 0 0 0 0 0 0 0 0 -1 0 0 0 0 0 0 -5 -5 0 0 0 0 0 0 0 0 0 0 0 0 0 0 0 0 0 0 0 0 0 0
0 0 0 0 0 0 0 0 0 0 0 0 0 0 0 0 0 0 0 -8 -4 0 0 0 0 0 0 0 0 0 0 0 0 0 0 0 0 0 0 0 0 0 0
0 0 0 0 0 0 0 0 0 0 0 0 0 0 0 0 0 0 0 0 0 -2 -1 0 0 0 0 0 0 0 0 0 0 0 0 0 0 0 0 0 0 0 0
0 0 0 0 0 0 0 0 0 0 0 0 0 0 0 0 0 0 0 0 0 0 0 0 0 0 0 0 0 0 0 0 0 0 0 0 0 0 0 0 0 0 0
0 0 0 0 0 0 0 0 0 0 0 0 0 0 0 0 0 0 0 0 0 0 0 0 0 0 0 0 0 0 0 0 0 0 0 0 0 0 0 0 0 0 0
0 0 0 0 0 0 0 0 0 0 0 0 0 0 0 0 0 0 0 0 0 0 0 0 0 0 0 0 0 0 0 0 0 0 0 0 0 0 0 0 0 0 0
0 0 0 0 0 0 0 0 0 0 0 0 0 0 0 0 0 0 0 0 0 0 0 0 0 0 0 0 0 0 0 0 0 0 0 0 0 0 0 0 0 0 0
0 0 0 0 0 0 0 0 0 0 0 0 0 0 0 0 0 0 0 0 0 0 0 0 0 0 0 0 0 0 0 0 0 0 0 0 0 0 0 0 0 0 0
0 0 0 0 0 0 0 0 0 0 0 0 0 0 0 0 0 0 0 0 0 0 0 0 0 0 0 0 0 0 0 0 0 0 0 0 0 0 0 0 0 0 0
0 0 0 0 0 0 0 0 0 0 0 0 0 0 0 0 0 0 0 0 0 0 0 0 0 0 0 0 0 0 0 0 0 0 0 0 0 0 0 0 0 0 0
0 0 0 0 0 0 0 0 0 0 0 0 0 0 0 0 0 0 0 0 0 0 0 0 0 0 0 0 0 0 0 0 0 0 0 0 0 0 0 0 0 0 0
0 0 0 0 0 0 0 0 0 0 0 0 0 0 0 0 0 0 0 0 0 0 0 0 0 0 0 0 0 0 0 0 0 0 0 0 0 0 0 0 0 0 0
0 0 0 0 0 0 0 0 0 0 0 0 0 0 0 0 0 0 0 0 0 0 0 0 0 0 0 0 0 0 0 0 0 0 0 0 0 0 0 0 0 0 0
-111 0 0 0 0 0 0 0 0 0 0 0 0 0 0 0 0 0 0 0 0 0 0 0 0 0 0 0 0 0 0 0 0 0 0 0 0 0 0 0 0 0 0
0 0 0 0 0 0 0 0 0 0 0 0 0 0 0 0 0 0 0 0 0 0 0 0 0 0 0 0 0 0 0 0 0 0 0 0 0 0 0 0 0 0 0
0 0 0 0 0 0 0 0 0 0 0 0 0 0 0 0 0 0 0 0 0 0 0 0 0 0 0 0 0 0 0 0 0 0 0 0 0 0 0 0 0 0 0
0 0 0 0 0 0 0 0 0 0 0 0 0 0 0 0 0 0 0 0 0 0 0 0 0 0 0 0 0 0 0 0 0 0 0 0 0 0 0 0 0 0 0
0 -470 0 0 0 0 0 0 0 0 0 0 0 0 0 0 0 0 0 0 0 0 0 0 0 0 0 0 0 0 0 0 0 0 0 0 0 0 0 0 0 0 0
0 0 0 0 0 0 0 0 0 0 0 0 0 0 0 0 0 0 0 0 0 0 0 0 0 0 0 0 0 0 0 0 0 0 0 0 0 0 0 0 0 0 0
0 0 0 0 0 0 0 0 0 0 0 0 0 0 0 0 0 0 0 0 0 0 0 0 0 0 0 0 0 0 0 0 0 0 0 0 0 0 0 0 0 0 0
0 0 0 0 0 0 0 0 0 0 0 0 0 0 0 0 0 0 0 0 0 0 0 0 0 0 0 0 0 0 0 0 0 0 0 0 0 0 0 0 0 0 0
0 0 0 0 0 0 0 0 0 0 0 0 0 0 0 0 0 0 0 0 0 0 0 0 0 0 0 0 0 0 0 0 0 0 0 0 0 0 0 0 0 0 0
0 0 0 0 0 0 0 0 0 0 0 0 0 0 0 0 0 0 0 0 0 0 0 0 0 0 0 0 0 0 0 0 0 0 0 0 0 0 0 0 0 0 0
0 0 0 0 0 0 0 0 0 0 0 0 0 0 0 0 0 0 0 0 0 0 0 0 0 0 0 0 0 0 0 0 0 0 0 0 0 0 0 0 0 0 0
0 0 0 0 0 0 0 0 0 0 0 0 0 0 0 0 0 0 0 0 0 0 0 0 0 0 0 0 0 0 0 0 0 0 0 0 0 0 0 0 0 0 0
0 0 0 0 0 0 0 0 0 0 0 0 0 0 0 0 0 0 0 0 0 0 0 0 0 0 0 0 0 0 0 0 0 0 0 0 0 0 0 0 0 0 0
Wind_Speed
6 4 4 4 4 4 5 6 7 7 9 9 8 9 10 9 9 6 5 13 15 13 12 12 13 14 13 12 12 12 12 12 12 12 12 12 12 12 12 13 13 13 13
6 6 5 4 4 4 4 5 7 7 7 7 8 11 9 8 8 7 5 7 12 11 11 12 13 13 12 11 11 11 11 10 10 10 11 11 11 11 12 12 12 13 13
6 7 6 4 4 4 8 7 7 7 7 7 9 8 8 9 8 7 6 5 6 11 10 12 12 12 11 10 10 10 9 9 9 9 10 10 10 10 11 11 11 12 12
6 6 5 5 5 6 6 6 7 7 7 7 7 6 6 7 8 7 6 5 4 4 7 10 11 10 9 8 8 8 8 8 8 8 8 9 10 10 10 10 11 11 12
7 6 5 5 7 7 6 7 5 7 8 6 7 6 5 6 6 6 6 5 5 4 3 9 9 8 8 7 6 6 6 7 7 7 7 8 8 9 9 9 10 11 11
7 6 5 7 7 7 7 7 9 6 8 8 8 7 5 5 4 4 4 4 4 4 4 4 4 3 7 6 4 4 4 5 6 6 6 7 8 8 9 9 9 10 11
8 8 5 7 7 9 10 11 8 11 5 8 6 5 4 4 3 3 3 3 3 4 4 3 3 2 2 5 4 3 3 4 5 6 6 7 7 8 8 8 9 10 11
7 8 9 9 10 7 9 10 12 6 3 7 4 3 2 2 1 1 2 2 3 2 3 4 4 4 3 2 1 3 2 2 4 5 6 5 5 5 6 7 8 9 10
9 9 10 9 9 9 10 12 11 8 7 6 6 5 3 4 2 0 3 3 4 2 2 3 3 3 3 2 2 2 3 3 3 3 4 3 4 5 6 7 7 8 9
10 9 10 10 10 8 11 10 10 7 9 11 2 1 3 5 4 2 1 2 2 4 4 4 4 4 4 2 3 3 2 1 2 2 3 3 4 5 6 6 6 7 9
9 10 10 11 11 9 10 12 11 8 7 9 6 4 2 3 3 4 3 2 1 3 3 4 4 4 5 4 3 3 5 3 1 1 2 2 3 4 5 6 7 7 9
7 9 11 11 12 11 12 12 11 11 9 6 5 4 4 5 4 4 3 2 3 3 3 4 4 5 5 5 7 8 8 6 3 2 1 1 3 5 5 6 7 8 8
6 8 9 10 9 10 11 10 10 9 9 8 10 6 3 3 4 3 4 2 2 2 2 3 5 5 6 5 5 9 10 8 7 5 2 2 2 3 5 6 7 8 9
8 8 11 10 11 11 10 10 8 8 8 7 9 7 4 4 4 4 5 5 2 1 1 4 3 5 5 6 7 12 5 10 9 7 6 5 5 5 6 7 7 9 9
8 10 11 12 11 11 11 11 9 10 9 8 7 7 5 4 3 4 4 4 6 4 6 4 4 5 5 5 8 6 5 9 11 11 8 7 5 6 8 8 7 8 8
12 12 13 11 10 10 10 11 7 8 10 5 5 8 5 4 5 3 4 4 3 5 4 3 5 3 7 7 7 6 6 9 12 12 10 9 8 7 7 7 7 9 9
11 12 12 12 11 11 10 10 9 10 10 8 7 8 7 5 4 5 4 3 4 4 4 2 2 3 4 5 5 4 5 4 5 12 12 11 8 7 7 6 7 7 8
10 12 11 11 12 11 10 11 10 9 10 9 7 7 6 3 5 4 4 6 5 4 4 4 2 2 3 3 3 4 3 5 5 8 12 12 10 8 7 6 6 7 8
6 4 4 8 10 11 12 10 10 10 9 9 9 8 7 8 7 4 4 5 4 3 2 3 3 1 1 2 3 1 2 2 3 8 9 12 11 9 9 9 8 7 8
9 7 5 4 4 4 6 7 9 9 8 7 6 6 6 8 9 8 6 6 4 5 3 3 2 2 2 1 3 3 3 2 3 3 5 6 6 8 10 10 9 8 8
11 10 10 6 6 7 6 8 7 7 8 8 6 6 4 8 8 8 6 5 6 4 3 4 3 2 2 3 6 3 3 1 2 3 2 4 4 5 6 8 9 9 9
8 7 8 11 11 7 14 15 11 8 9 7 10 5 7 8 6 9 8 9 9 8 5 4 3 4 4 3 4 4 3 2 3 2 2 4 2 5 5 5 9 10 10
6 8 9 9 10 10 16 19 18 9 8 7 8 7 5 4 7 6 6 8 7 8 5 7 5 6 5 7 6 5 4 3 3 1 1 3 1 5 3 5 9 9 10
7 7 8 8 7 6 14 14 14 11 7 7 6 6 7 7 7 9 7 6 4 4 2 2 5 5 4 7 6 5 5 3 1 1 2 3 1 4 3 4 9 11 10
6 4 5 6 6 6 15 15 12 10 8 7 6 7 6 6 8 12 8 7 5 2 4 3 2 2 6 10 9 6 4 3 2 2 3 2 0 3 2 2 3 8 9
6 5 5 4 7 8 9 11 8 8 9 6 5 5 9 8 12 12 8 7 6 5 4 3 3 6 5 6 11 2 6 3 3 1 4 4 1 1 4 2 2 4 4
Wind_Direction
122 113 107 113 115 114 116 110 112 105 103 109 114 105 99 101 106 100 102 104 107 108 107 102 99 94 92 90 86 84 80 79 76 72 66 61 58 53 49 47 45 43 39
129 130 128 128 121 118 104 112 116 111 103 102 99 111 104 99 96 96 96 104 111 113 107 102 100 97 96 92 87 81 77 75 73 72 71 67 60 53 50 45 43 41 37
144 139 140 140 143 113 111 104 92 96 97 92 89 92 97 94 92 88 85 86 84 84 96 104 102 101 101 100 95 91 85 79 74 70 67 64 61 54 48 45 41 40 36
148 140 136 140 141 128 119 116 119 107 105 104 102 90 92 93 94 89 89 87 81 72 86 103 106 105 102 98 97 92 93 88 78 73 67 62 59 53 47 43 40 35 31
161 151 154 147 146 135 134 136 121 126 122 108 104 98 91 97 106 102 95 91 93 93 85 103 102 100 100 95 91 89 94 97 90 82 75 67 60 54 47 44 40 33 30
169 150 150 148 147 138 135 127 119 104 128 129 110 81 75 72 82 96 113 107 105 98 90 83 80 82 100 93 89 91 98 101 93 85 72 63 57 48 44 41 39 33 27
171 158 162 155 158 161 158 140 118 126 106 121 102 90 67 59 93 106 114 124 134 126 125 125 120 88 70 80 83 81 92 93 87 79 68 57 49 45 42 38 34 30 26
176 169 167 172 172 144 141 153 145 129 96 166 126 102 125 360 36 137 135 147 165 150 165 165 146 141 119 91 80 85 74 70 79 76 67 54 49 48 49 40 33 28 23
187 178 175 172 170 161 164 166 159 151 146 187 192 135 136 202 154 132 190 190 177 186 204 194 187 166 146 134 80 65 68 31 58 72 73 54 43 48 42 34 25 21 16
188 181 176 170 171 168 168 174 171 164 149 172 170 97 71 139 158 169 324 226 198 208 207 207 199 186 176 174 172 163 158 92 50 56 54 32 27 38 31 24 12 5 6
182 179 178 173 172 171 175 172 172 163 168 166 162 148 107 62 79 128 175 225 250 221 221 214 203 197 182 186 191 203 181 186 146 81 61 39 19 19 15 9 1 349 346
182 185 181 175 179 173 174 179 180 174 174 170 176 158 161 159 173 144 129 182 189 230 202 204 199 207 189 190 197 201 187 192 193 156 124 33 356 353 354 345 342 338 333
187 185 170 176 178 182 175 172 174 174 176 180 177 187 150 151 136 125 115 125 163 224 213 222 210 201 193 193 200 197 195 200 204 193 184 252 287 305 323 328 327 326 325
184 169 179 178 181 170 172 168 177 184 179 181 178 178 162 163 156 149 146 142 115 234 281 252 218 200 194 195 200 209 191 205 211 207 215 237 264 289 301 302 316 322 321
165 169 182 181 180 175 173 173 180 183 184 181 183 165 167 160 175 158 154 157 151 170 227 225 206 194 191 185 203 197 187 210 217 220 223 243 265 290 294 300 293 305 302
174 174 180 188 181 173 173 174 180 176 176 168 161 166 166 163 175 176 169 170 174 156 205 158 219 192 185 197 199 189 194 215 226 226 227 243 254 271 290 289 298 298 297
181 186 189 181 184 183 176 180 183 171 173 163 162 172 175 158 174 194 178 150 152 139 160 227 183 192 178 175 180 194 198 209 231 234 230 233 243 256 269 270 293 290 306
183 185 184 188 186 180 178 183 182 178 167 164 157 146 150 136 192 203 174 178 176 166 141 168 148 158 208 194 160 187 196 219 224 243 231 231 236 249 251 252 285 288 290
129 110 158 189 194 189 181 181 173 169 166 162 162 164 167 161 199 166 166 182 165 145 130 128 153 151 147 158 154 176 193 243 247 242 242 242 239 250 246 251 271 291 288
131 127 137 172 195 200 188 172 165 162 158 147 154 163 164 198 188 173 174 186 138 139 141 125 142 155 161 109 99 158 213 230 248 260 261 245 225 252 256 253 259 279 283
164 165 163 172 172 178 173 168 160 155 149 142 128 132 172 208 204 176 160 166 157 145 148 154 161 139 152 151 192 164 181 196 274 235 263 254 247 258 259 265 259 277 283
153 151 166 167 165 174 168 157 149 148 157 170 136 173 180 190 185 183 172 160 166 158 167 158 153 183 192 182 150 155 143 164 256 167 233 279 218 255 265 256 246 262 279
140 164 162 165 174 166 167 167 147 144 150 143 134 180 166 172 160 153 126 125 151 164 163 162 171 194 180 182 140 153 176 177 212 197 174 277 306 277 261 254 256 264 271
154 150 155 171 165 151 161 144 135 124 127 129 152 171 174 167 177 153 139 131 130 93 88 181 189 183 195 160 164 159 161 152 59 240 164 260 356 269 297 272 268 263 249
111 112 138 138 151 136 150 162 136 128 145 147 155 195 171 164 175 148 141 144 135 116 46 66 201 214 169 157 148 123 138 125 235 254 204 222 319 285 281 293 273 246 249
103 103 102 120 130 132 153 141 137 140 143 146 159 185 180 167 165 163 147 147 171 188 177 111 64 60 85 149 160 131 145 163 158 274 200 200 214 332 319 230 247 259 273